Tracking 27423 objects as of 8-Jun-2023
HD Live streaming from Space Station
objects crossing your sky now

FREGAT R/B

Track FREGAT R/B now!


NORAD ID: 44300
Int'l Code: 2019-030B
Perigee: 19,263.2 km
Apogee: 19,671.5 km
Inclination: 64.3 °
Period: 688.9 minutes
Semi major axis: 25838 km
RCS: Unknown
Launch date: May 27, 2019
Source: Commonwealth of Independent States (former USSR) (CIS)
Launch site: PLESETSK MISSILE AND SPACE COMPLEX (PKMTR)

Note: This is a ROCKET BODY
Your satellite tracking list
Your tracking list is empty




NASA's NSSDC Master Catalog

Two Line Element Set (TLE):
1 44300U 19030B   23159.33620965  .00000024  00000-0  00000-0 0  9994
2 44300  64.3375 231.9003 0079021 135.1569 225.5579  2.09028854 30790
Source of the keplerian elements: AFSPC